User: anonymous   Login
Location: Vale
(35.4830°N, 81.3830°W)
Time: 05:28:09
(UTC-04:00)
Language:

Cosmos 2237 Rocket - Orbit

View from above orbital plane
View from above orbital plane
View from above satellite
View from above satellite

Ground track
Ground track

The orbit data is extracted from the following two-line orbital elements,

1 22566U 93016B   18115.11235820 -.00000480 +00000-0 -22355-3 0  9992
2 22566 071.0042 132.1677 0009786 005.4594 354.6634 14.14954518295381
Epoch (UTC): 25 April 2018 02:41:47
Eccentricity: 0.0009786
inclination: 71.0042°
perigee height: 835 km
apogee height: 849 km
right ascension of ascending node: 132.1677°
argument of perigee: 5.4594°
revolutions per day: 14.14954518
mean anomaly at epoch: 354.6634°
orbit number at epoch: 29538

The dashed part of the orbit path shows where the satellite is in the earth's shadow,  

DLR